Notices

What's New in latest Release from April 7th, 2021:

- Updated Glossary, including Speed of Maximum Gust, and Total Hourly Precipitation

- Updated national and regional climate services offices contacts and prices information

- Addition of station inventory lists for 1981-2010, 1971-2000, and 1961-1990 Normals.

If you haven't already, please take our survey and provide feedback about our website: https://eccc.sondage-survey.ca/f/LanguageSelection.aspx?s=442ca660-fcf1-47c0-95a9-59707d6fd709

Hourly Data Report for November 24, 2019

SHEARWATER RCS
NOVA SCOTIA
Current Station Operator: ECCC - MSC

44°37'47.000" N
63°30'48.000" W
24.00 m
8205092
71264
AAW

Download Data

Hourly Data (November 2019)
Hourly Data Report for November 24, 2019
TIME
LST
Temp Definition
°C
Dew Point Definition
°C
Rel Hum Definition
%
Precip. Amount Definition
mm

Wind Dir Definition
10's deg

Wind Spd Definition
km/h
Visibility Definition
km
Stn Press Definition
kPa
Hmdx Definition


Wind Chill Definition


Weather Definition


00:00 1.2 -4.2 67 0.0 28 12   100.44     LegendNANA
01:00 1.1 -3.7 71 0.0 26 10   100.48     LegendNANA
02:00 0.9 -3.3 74 0.0 26 9   100.49     LegendNANA
03:00 1.1 -3.2 73 0.0 26 7   100.50     LegendNANA
04:00 1.2 -3.1 73 0.0 26 11   100.51     LegendNANA
05:00 1.2 -3.2 72 0.0 26 9   100.52     LegendNANA
06:00 0.5 -3.6 74 0.0 22 5   100.56     LegendNANA
07:00 0.7 -3.2 75 0.0 27 5   100.57     LegendNANA
08:00 0.9 -2.2 79 0.0 26 4   100.64     LegendNANA
09:00 0.9 -1.7 82 0.0 6 6   100.58     LegendNANA
10:00 2.5 -1.6 74 0.0 5 6   100.61     LegendNANA
11:00 3.6 -2.2 66 0.0 8 8   100.49     LegendNANA
12:00 4.1 -1.8 66 0.0 8 7   100.42     LegendNANA
13:00 4.1 -1.0 70 0.0 9 5   100.45     LegendNANA
14:00 4.3 -0.4 72 0.0 7 10   100.42     LegendNANA
15:00 4.3 0.0 74 0.0 6 14   100.30     LegendNANA
16:00 4.5 1.0 78 0.0 6 18   100.11     LegendNANA
17:00 4.9 2.2 83 0.0 8 15   100.07     LegendNANA
18:00 5.6 4.1 90 0.3 8 15   99.93     LegendNANA
19:00 6.6 5.3 91 1.1 9 22   99.74     LegendNANA
20:00 7.2 6.1 93 1.9 9 21   99.55     LegendNANA
21:00 8.2 7.1 93 2.8 9 30   99.27     LegendNANA
22:00 8.1 7.1 93 3.1 9 34   98.93     LegendNANA
23:00 8.4 7.5 94 8.5 8 34   98.66     LegendNANA

Notes on Data Quality.

Legend

  • E = Estimated
  • M = Missing
  • NA = Not Available*
  • [empty] = Indicates an unobserved value
Date modified: